Time,TemperatureF,DewpointF,PressureIn,WindDirection,WindDirectionDegrees,WindSpeedMPH,WindSpeedGustMPH,Humidity,HourlyPrecipIn,Conditions,Clouds,dailyrainin,SoftwareType,DateUTC
2013-05-20 00:01:00,47.2,47.0,30.29,South,180,4.4,8.4,99,0.00,,,0.00,Rainwise IP-100,2013-05-20 04:01:00,
2013-05-20 00:06:00,47.2,47.0,30.29,South,180,4.2,9.1,100,0.00,,,0.00,Rainwise IP-100,2013-05-20 04:06:00,
2013-05-20 00:11:00,47.3,47.5,30.29,SSE,157,4.7,9.6,100,0.00,,,0.00,Rainwise IP-100,2013-05-20 04:11:00,
2013-05-20 00:16:00,47.3,47.5,30.29,SSW,202,2.3,7.2,100,0.00,,,0.00,Rainwise IP-100,2013-05-20 04:16:00,
2013-05-20 00:21:00,47.3,47.5,30.29,SSE,157,2.3,8.4,100,0.00,,,0.00,Rainwise IP-100,2013-05-20 04:21:00,
2013-05-20 00:26:00,47.3,47.5,30.29,SSE,157,3.0,6.5,100,0.00,,,0.00,Rainwise IP-100,2013-05-20 04:26:00,
2013-05-20 00:31:00,47.3,47.5,30.28,South,180,2.3,4.2,100,0.00,,,0.00,Rainwise IP-100,2013-05-20 04:31:00,
2013-05-20 00:36:00,47.3,47.5,30.28,SSE,157,4.0,6.8,100,0.00,,,0.00,Rainwise IP-100,2013-05-20 04:36:00,
2013-05-20 00:41:00,47.3,47.5,30.28,SSE,157,2.8,7.9,100,0.00,,,0.00,Rainwise IP-100,2013-05-20 04:41:00,
2013-05-20 00:46:00,47.3,47.5,30.27,SE,135,1.9,6.8,100,0.00,,,0.00,Rainwise IP-100,2013-05-20 04:46:00,
2013-05-20 00:51:00,47.3,47.5,30.27,SSE,157,1.6,6.5,100,0.00,,,0.00,Rainwise IP-100,2013-05-20 04:51:00,
2013-05-20 00:56:00,47.3,47.5,30.27,SSE,157,2.1,5.8,100,0.00,,,0.00,Rainwise IP-100,2013-05-20 04:56:00,
2013-05-20 01:01:00,47.3,47.5,30.27,SSE,157,4.7,6.3,100,0.00,,,0.00,Rainwise IP-100,2013-05-20 05:01:00,
2013-05-20 01:06:00,47.3,47.5,30.26,SE,135,1.9,7.5,100,0.00,,,0.00,Rainwise IP-100,2013-05-20 05:06:00,
2013-05-20 01:11:00,47.3,47.5,30.26,ESE,112,2.8,4.9,100,0.00,,,0.00,Rainwise IP-100,2013-05-20 05:11:00,
2013-05-20 01:16:00,47.3,47.5,30.26,ESE,112,3.0,4.2,100,0.00,,,0.00,Rainwise IP-100,2013-05-20 05:16:00,
2013-05-20 01:21:00,47.3,47.5,30.26,ESE,112,2.8,4.4,100,0.00,,,0.00,Rainwise IP-100,2013-05-20 05:21:00,
2013-05-20 01:26:00,47.2,47.0,30.26,ESE,112,2.6,4.7,100,0.00,,,0.00,Rainwise IP-100,2013-05-20 05:26:00,
2013-05-20 01:31:00,47.2,47.0,30.25,ESE,112,1.6,3.7,100,0.00,,,0.00,Rainwise IP-100,2013-05-20 05:31:00,
2013-05-20 01:36:00,47.3,47.5,30.25,ESE,112,1.4,4.2,100,0.00,,,0.00,Rainwise IP-100,2013-05-20 05:36:00,
2013-05-20 01:41:00,47.3,47.5,30.25,ESE,112,3.0,5.8,100,0.00,,,0.00,Rainwise IP-100,2013-05-20 05:41:00,
2013-05-20 01:46:00,47.2,47.0,30.25,ESE,112,2.8,5.4,100,0.00,,,0.00,Rainwise IP-100,2013-05-20 05:46:00,
2013-05-20 01:51:00,47.2,47.0,30.25,SSE,157,1.6,4.4,100,0.00,,,0.00,Rainwise IP-100,2013-05-20 05:51:00,
2013-05-20 01:56:00,47.2,47.0,30.25,SSE,157,2.3,5.1,100,0.00,,,0.00,Rainwise IP-100,2013-05-20 05:56:00,
2013-05-20 02:01:00,47.2,47.0,30.25,East,90,3.5,6.1,100,0.00,,,0.00,Rainwise IP-100,2013-05-20 06:01:00,
2013-05-20 02:06:00,47.2,47.0,30.24,SE,135,2.1,4.0,100,0.00,,,0.00,Rainwise IP-100,2013-05-20 06:06:00,
2013-05-20 02:11:00,47.2,47.0,30.24,ESE,112,3.7,4.4,100,0.00,,,0.00,Rainwise IP-100,2013-05-20 06:11:00,
2013-05-20 02:16:00,47.2,47.0,30.24,ESE,112,1.6,5.1,100,0.00,,,0.00,Rainwise IP-100,2013-05-20 06:16:00,
2013-05-20 02:21:00,47.2,47.0,30.24,ESE,112,4.4,5.6,100,0.00,,,0.00,Rainwise IP-100,2013-05-20 06:21:00,
2013-05-20 02:26:00,47.3,47.5,30.24,ESE,112,2.6,5.8,100,0.00,,,0.00,Rainwise IP-100,2013-05-20 06:26:00,
2013-05-20 02:31:00,47.3,47.5,30.23,SE,135,2.8,4.2,100,0.00,,,0.00,Rainwise IP-100,2013-05-20 06:31:00,
2013-05-20 02:36:00,47.3,47.5,30.23,SSE,157,0.0,3.3,100,0.00,,,0.00,Rainwise IP-100,2013-05-20 06:36:00,
2013-05-20 02:41:00,47.3,47.5,30.23,ESE,112,3.0,5.4,100,0.00,,,0.00,Rainwise IP-100,2013-05-20 06:41:00,
2013-05-20 02:46:00,47.3,47.5,30.23,ESE,112,2.1,5.6,100,0.00,,,0.00,Rainwise IP-100,2013-05-20 06:46:00,
2013-05-20 02:51:00,47.3,47.5,30.23,SSW,202,2.6,7.0,100,0.00,,,0.00,Rainwise IP-100,2013-05-20 06:51:00,
2013-05-20 02:56:00,47.4,47.5,30.22,ESE,112,3.0,4.7,100,0.06,,,0.01,Rainwise IP-100,2013-05-20 06:56:00,
2013-05-20 03:00:00,47.4,47.5,30.22,SE,135,2.3,6.8,100,0.06,,,0.01,Rainwise IP-100,2013-05-20 07:00:00,
2013-05-20 03:05:00,47.4,47.5,30.22,SE,135,1.6,4.4,100,0.06,,,0.01,Rainwise IP-100,2013-05-20 07:05:00,
2013-05-20 03:10:00,47.5,47.5,30.22,SSE,157,2.3,4.4,100,0.00,,,0.01,Rainwise IP-100,2013-05-20 07:10:00,
2013-05-20 03:15:00,47.5,47.5,30.22,SSE,157,2.1,6.1,100,0.06,,,0.02,Rainwise IP-100,2013-05-20 07:15:00,
2013-05-20 03:20:00,47.5,47.5,30.22,SSE,157,3.5,4.9,100,0.06,,,0.02,Rainwise IP-100,2013-05-20 07:20:00,
2013-05-20 03:25:00,47.5,47.5,30.21,SE,135,2.1,5.6,100,0.06,,,0.03,Rainwise IP-100,2013-05-20 07:25:00,
2013-05-20 03:30:00,47.6,47.5,30.21,SE,135,1.9,6.3,100,0.12,,,0.04,Rainwise IP-100,2013-05-20 07:30:00,
2013-05-20 03:35:00,47.6,47.5,30.21,ESE,112,2.8,3.7,100,0.06,,,0.05,Rainwise IP-100,2013-05-20 07:35:00,
2013-05-20 03:40:00,47.6,47.5,30.20,ESE,112,3.5,4.2,100,0.06,,,0.05,Rainwise IP-100,2013-05-20 07:40:00,
2013-05-20 03:45:00,47.5,47.5,30.20,ESE,112,3.5,4.4,100,0.12,,,0.06,Rainwise IP-100,2013-05-20 07:45:00,
2013-05-20 03:50:00,47.5,47.5,30.20,SSE,157,2.6,5.4,100,0.12,,,0.07,Rainwise IP-100,2013-05-20 07:50:00,
2013-05-20 03:55:00,47.5,47.5,30.19,ENE,67,2.8,4.4,100,0.12,,,0.08,Rainwise IP-100,2013-05-20 07:55:00,
2013-05-20 04:00:00,47.5,47.5,30.19,ESE,112,2.1,6.3,100,0.06,,,0.08,Rainwise IP-100,2013-05-20 08:00:00,
2013-05-20 04:05:00,47.4,47.5,30.19,ESE,112,3.0,4.7,100,0.00,,,0.08,Rainwise IP-100,2013-05-20 08:05:00,
2013-05-20 04:10:00,47.4,47.5,30.18,ESE,112,4.4,6.3,100,0.06,,,0.09,Rainwise IP-100,2013-05-20 08:10:00,
2013-05-20 04:15:00,47.4,47.5,30.18,ESE,112,3.7,8.4,100,0.12,,,0.10,Rainwise IP-100,2013-05-20 08:15:00,
2013-05-20 04:20:00,47.4,47.5,30.18,ESE,112,4.9,7.9,100,0.06,,,0.10,Rainwise IP-100,2013-05-20 08:20:00,
2013-05-20 04:25:00,47.4,47.5,30.18,ESE,112,4.2,5.8,100,0.00,,,0.10,Rainwise IP-100,2013-05-20 08:25:00,
2013-05-20 04:30:00,47.4,47.5,30.18,SE,135,4.2,8.4,100,0.00,,,0.10,Rainwise IP-100,2013-05-20 08:30:00,
2013-05-20 04:35:00,47.5,47.5,30.18,ESE,112,2.1,7.0,100,0.00,,,0.10,Rainwise IP-100,2013-05-20 08:35:00,
2013-05-20 04:40:00,47.6,47.5,30.18,ESE,112,4.4,7.2,100,0.00,,,0.11,Rainwise IP-100,2013-05-20 08:40:00,
2013-05-20 04:45:00,47.6,47.5,30.18,ESE,112,3.3,5.4,100,0.06,,,0.11,Rainwise IP-100,2013-05-20 08:45:00,
2013-05-20 04:50:00,47.7,47.5,30.18,ESE,112,3.0,5.8,100,0.12,,,0.12,Rainwise IP-100,2013-05-20 08:50:00,
2013-05-20 04:55:00,47.7,47.5,30.18,SE,135,2.8,4.9,100,0.06,,,0.12,Rainwise IP-100,2013-05-20 08:55:00,
2013-05-20 05:00:00,47.7,47.5,30.18,SE,135,1.6,4.9,100,0.06,,,0.13,Rainwise IP-100,2013-05-20 09:00:00,
2013-05-20 05:05:00,47.6,47.5,30.18,ESE,112,3.5,5.6,100,0.12,,,0.14,Rainwise IP-100,2013-05-20 09:05:00,
2013-05-20 05:10:00,47.6,47.5,30.17,East,90,3.7,5.1,100,0.12,,,0.15,Rainwise IP-100,2013-05-20 09:10:00,
2013-05-20 05:15:00,47.6,47.5,30.17,East,90,2.8,7.2,100,0.12,,,0.16,Rainwise IP-100,2013-05-20 09:15:00,
2013-05-20 05:20:00,47.6,47.5,30.17,East,90,4.4,7.9,100,0.12,,,0.17,Rainwise IP-100,2013-05-20 09:20:00,
2013-05-20 05:25:00,47.6,47.5,30.17,ENE,67,1.6,6.5,100,0.12,,,0.18,Rainwise IP-100,2013-05-20 09:25:00,
2013-05-20 05:30:00,47.6,47.5,30.17,ESE,112,2.1,7.2,100,0.06,,,0.18,Rainwise IP-100,2013-05-20 09:30:00,
2013-05-20 05:35:00,47.7,47.5,30.17,ESE,112,2.8,4.9,100,0.06,,,0.19,Rainwise IP-100,2013-05-20 09:35:00,
2013-05-20 05:40:00,47.7,47.5,30.17,ESE,112,7.0,7.0,100,0.06,,,0.19,Rainwise IP-100,2013-05-20 09:40:00,
2013-05-20 05:45:00,47.8,48.0,30.16,SE,135,5.1,7.2,100,0.06,,,0.20,Rainwise IP-100,2013-05-20 09:45:00,
2013-05-20 05:50:00,47.8,48.0,30.15,East,90,1.9,7.5,100,0.06,,,0.20,Rainwise IP-100,2013-05-20 09:50:00,
2013-05-20 05:55:00,47.9,48.0,30.15,ESE,112,4.7,7.0,100,0.06,,,0.21,Rainwise IP-100,2013-05-20 09:55:00,
2013-05-20 06:00:00,48.1,48.0,30.16,SSE,157,1.2,7.7,100,0.12,,,0.22,Rainwise IP-100,2013-05-20 10:00:00,
2013-05-20 06:05:00,48.1,48.0,30.16,ESE,112,3.0,6.5,100,0.12,,,0.24,Rainwise IP-100,2013-05-20 10:05:00,
2013-05-20 06:10:00,48.2,48.0,30.16,East,90,1.9,10.3,100,0.18,,,0.25,Rainwise IP-100,2013-05-20 10:10:00,
2013-05-20 06:15:00,48.3,48.0,30.15,SE,135,3.0,10.5,100,0.18,,,0.26,Rainwise IP-100,2013-05-20 10:15:00,
2013-05-20 06:20:00,48.5,49.0,30.15,SSE,157,4.9,9.8,100,0.12,,,0.27,Rainwise IP-100,2013-05-20 10:20:00,
2013-05-20 06:25:00,48.6,49.0,30.15,ESE,112,4.4,10.5,100,0.18,,,0.29,Rainwise IP-100,2013-05-20 10:25:00,
2013-05-20 06:30:00,48.7,49.0,30.14,SSE,157,4.2,10.0,100,0.18,,,0.30,Rainwise IP-100,2013-05-20 10:30:00,
2013-05-20 06:35:00,48.8,49.0,30.14,SSE,157,4.9,10.3,100,0.12,,,0.31,Rainwise IP-100,2013-05-20 10:35:00,
2013-05-20 06:40:00,48.9,49.0,30.14,ESE,112,2.3,10.7,100,0.12,,,0.32,Rainwise IP-100,2013-05-20 10:40:00,
2013-05-20 06:45:00,48.9,49.0,30.14,ESE,112,7.2,10.3,100,0.12,,,0.33,Rainwise IP-100,2013-05-20 10:45:00,
2013-05-20 06:50:00,49.0,49.0,30.14,ESE,112,3.7,11.0,100,0.06,,,0.34,Rainwise IP-100,2013-05-20 10:50:00,
2013-05-20 06:55:00,49.0,49.0,30.14,SSE,157,6.3,10.7,100,0.12,,,0.35,Rainwise IP-100,2013-05-20 10:55:00,
2013-05-20 07:00:00,49.1,49.0,30.14,ESE,112,2.8,8.2,100,0.18,,,0.36,Rainwise IP-100,2013-05-20 11:00:00,
2013-05-20 07:05:00,49.1,49.0,30.14,ESE,112,4.4,9.8,100,0.12,,,0.37,Rainwise IP-100,2013-05-20 11:05:00,
2013-05-20 07:10:00,49.1,49.0,30.14,SE,135,7.5,9.8,100,0.18,,,0.39,Rainwise IP-100,2013-05-20 11:10:00,
2013-05-20 07:15:00,49.1,49.0,30.14,SSE,157,5.8,11.0,100,0.18,,,0.40,Rainwise IP-100,2013-05-20 11:15:00,
2013-05-20 07:20:00,49.0,49.0,30.14,SSE,157,1.9,10.0,100,0.18,,,0.42,Rainwise IP-100,2013-05-20 11:20:00,
2013-05-20 07:25:00,49.0,49.0,30.13,SSE,157,5.8,11.4,100,0.24,,,0.44,Rainwise IP-100,2013-05-20 11:25:00,
2013-05-20 07:30:00,49.0,49.0,30.12,SSE,157,8.9,16.3,100,0.24,,,0.46,Rainwise IP-100,2013-05-20 11:30:00,
2013-05-20 07:35:00,49.0,49.0,30.13,SSW,202,4.0,11.4,100,0.24,,,0.48,Rainwise IP-100,2013-05-20 11:35:00,
2013-05-20 07:40:00,49.0,49.0,30.12,SE,135,5.8,13.5,100,0.18,,,0.49,Rainwise IP-100,2013-05-20 11:40:00,
2013-05-20 07:45:00,49.0,49.0,30.13,SSE,157,3.5,10.5,100,0.12,,,0.50,Rainwise IP-100,2013-05-20 11:45:00,
2013-05-20 07:50:00,49.0,49.0,30.11,SSE,157,3.3,12.6,100,0.18,,,0.52,Rainwise IP-100,2013-05-20 11:50:00,
2013-05-20 07:55:00,49.0,49.0,30.10,SE,135,5.4,15.4,100,0.24,,,0.54,Rainwise IP-100,2013-05-20 11:55:00,
2013-05-20 08:00:00,49.0,49.0,30.10,South,180,3.7,12.1,100,0.18,,,0.55,Rainwise IP-100,2013-05-20 12:00:00,
2013-05-20 08:05:00,49.1,49.0,30.10,SSW,202,0.0,12.4,100,0.12,,,0.56,Rainwise IP-100,2013-05-20 12:05:00,
2013-05-20 08:10:00,49.2,49.0,30.10,ESE,112,6.8,14.7,100,0.12,,,0.57,Rainwise IP-100,2013-05-20 12:10:00,
2013-05-20 08:15:00,49.4,49.0,30.09,South,180,2.8,12.8,100,0.12,,,0.58,Rainwise IP-100,2013-05-20 12:15:00,
2013-05-20 08:20:00,49.5,50.0,30.10,SSE,157,5.6,11.4,100,0.06,,,0.58,Rainwise IP-100,2013-05-20 12:20:00,
2013-05-20 08:25:00,49.6,50.0,30.09,SSE,157,7.9,16.3,100,0.06,,,0.59,Rainwise IP-100,2013-05-20 12:25:00,
2013-05-20 08:30:00,49.7,50.0,30.09,SSE,157,11.0,15.6,100,0.12,,,0.60,Rainwise IP-100,2013-05-20 12:30:00,
2013-05-20 08:35:00,49.9,50.0,30.10,SSW,202,1.4,16.1,100,0.06,,,0.60,Rainwise IP-100,2013-05-20 12:35:00,
2013-05-20 08:40:00,49.9,50.0,30.09,SSE,157,4.9,12.1,100,0.00,,,0.60,Rainwise IP-100,2013-05-20 12:40:00,
2013-05-20 08:45:00,49.8,50.0,30.10,South,180,5.4,10.7,100,0.06,,,0.61,Rainwise IP-100,2013-05-20 12:45:00,
2013-05-20 08:50:00,49.8,50.0,30.10,South,180,6.1,12.1,100,0.12,,,0.62,Rainwise IP-100,2013-05-20 12:50:00,
2013-05-20 08:55:00,49.8,50.0,30.10,ESE,112,3.5,11.2,100,0.06,,,0.63,Rainwise IP-100,2013-05-20 12:55:00,
2013-05-20 09:00:00,49.8,50.0,30.10,SSE,157,4.0,11.7,100,0.12,,,0.64,Rainwise IP-100,2013-05-20 13:00:00,
2013-05-20 09:05:00,49.8,50.0,30.09,SE,135,6.5,13.8,100,0.24,,,0.66,Rainwise IP-100,2013-05-20 13:05:00,
2013-05-20 09:10:00,49.8,50.0,30.10,SE,135,6.8,17.3,100,0.18,,,0.67,Rainwise IP-100,2013-05-20 13:10:00,
2013-05-20 09:15:00,49.9,50.0,30.10,ESE,112,5.4,11.9,100,0.18,,,0.69,Rainwise IP-100,2013-05-20 13:15:00,
2013-05-20 09:20:00,49.9,50.0,30.11,SSE,157,7.9,16.8,100,0.18,,,0.70,Rainwise IP-100,2013-05-20 13:20:00,
2013-05-20 09:25:00,49.9,50.0,30.11,South,180,5.1,14.7,100,0.12,,,0.71,Rainwise IP-100,2013-05-20 13:25:00,
2013-05-20 09:30:00,49.9,50.0,30.10,SE,135,6.5,9.1,100,0.18,,,0.73,Rainwise IP-100,2013-05-20 13:30:00,
2013-05-20 09:35:00,50.0,50.0,30.10,ENE,67,3.0,10.5,100,0.24,,,0.75,Rainwise IP-100,2013-05-20 13:35:00,
2013-05-20 09:40:00,49.9,50.0,30.09,SE,135,5.1,15.2,100,0.18,,,0.77,Rainwise IP-100,2013-05-20 13:40:00,
2013-05-20 09:45:00,49.9,50.0,30.09,South,180,2.6,12.8,100,0.18,,,0.78,Rainwise IP-100,2013-05-20 13:45:00,
2013-05-20 09:50:00,49.8,50.0,30.09,SE,135,7.7,11.9,100,0.12,,,0.78,Rainwise IP-100,2013-05-20 13:50:00,
2013-05-20 09:55:00,49.8,50.0,30.09,SSE,157,3.0,12.6,100,0.06,,,0.79,Rainwise IP-100,2013-05-20 13:55:00,
2013-05-20 10:00:00,49.8,50.0,30.09,SSW,202,2.1,11.7,100,0.06,,,0.79,Rainwise IP-100,2013-05-20 14:00:00,
2013-05-20 10:05:00,49.7,50.0,30.09,SSE,157,1.6,15.2,100,0.00,,,0.79,Rainwise IP-100,2013-05-20 14:05:00,
2013-05-20 10:10:00,49.6,50.0,30.08,SSW,202,5.4,14.5,100,0.00,,,0.79,Rainwise IP-100,2013-05-20 14:10:00,
2013-05-20 10:15:00,49.5,50.0,30.08,SE,135,7.7,15.2,100,0.00,,,0.79,Rainwise IP-100,2013-05-20 14:15:00,
2013-05-20 10:20:00,49.5,50.0,30.07,SSW,202,4.0,12.6,100,0.06,,,0.80,Rainwise IP-100,2013-05-20 14:20:00,
2013-05-20 10:25:00,49.6,50.0,30.07,SSW,202,3.5,11.7,100,0.06,,,0.80,Rainwise IP-100,2013-05-20 14:25:00,
2013-05-20 10:30:00,49.6,50.0,30.07,SSE,157,6.3,11.2,100,0.06,,,0.81,Rainwise IP-100,2013-05-20 14:30:00,
2013-05-20 10:35:00,49.6,50.0,30.07,SSW,202,2.3,13.1,100,0.06,,,0.81,Rainwise IP-100,2013-05-20 14:35:00,
2013-05-20 10:40:00,49.6,50.0,30.07,SSE,157,1.4,11.4,100,0.00,,,0.81,Rainwise IP-100,2013-05-20 14:40:00,
2013-05-20 10:45:00,49.5,50.0,30.07,South,180,6.1,9.1,100,0.00,,,0.81,Rainwise IP-100,2013-05-20 14:45:00,
2013-05-20 10:50:00,49.4,49.0,30.07,SSE,157,4.2,13.3,100,0.00,,,0.81,Rainwise IP-100,2013-05-20 14:50:00,
2013-05-20 10:55:00,49.3,49.0,30.07,ESE,112,4.7,11.9,100,0.00,,,0.81,Rainwise IP-100,2013-05-20 14:55:00,
2013-05-20 11:00:00,49.3,49.0,30.07,SE,135,3.5,11.0,100,0.00,,,0.81,Rainwise IP-100,2013-05-20 15:00:00,
2013-05-20 11:05:00,49.4,49.0,30.07,SSE,157,4.9,11.0,100,0.00,,,0.81,Rainwise IP-100,2013-05-20 15:05:00,
2013-05-20 11:10:00,49.5,50.0,30.07,ESE,112,1.9,13.1,100,0.00,,,0.81,Rainwise IP-100,2013-05-20 15:10:00,
2013-05-20 11:15:00,49.7,50.0,30.06,SSE,157,3.7,7.9,100,0.00,,,0.81,Rainwise IP-100,2013-05-20 15:15:00,
2013-05-20 11:20:00,49.7,50.0,30.06,SSE,157,4.7,10.3,100,0.00,,,0.81,Rainwise IP-100,2013-05-20 15:20:00,
2013-05-20 11:25:00,49.6,50.0,30.05,ESE,112,9.8,9.8,100,0.00,,,0.81,Rainwise IP-100,2013-05-20 15:25:00,
2013-05-20 11:30:00,49.5,50.0,30.06,SSE,157,9.8,12.6,100,0.00,,,0.81,Rainwise IP-100,2013-05-20 15:30:00,
2013-05-20 11:35:00,49.6,50.0,30.05,SSE,157,6.3,10.3,100,0.00,,,0.81,Rainwise IP-100,2013-05-20 15:35:00,
2013-05-20 11:40:00,49.6,50.0,30.05,SE,135,5.4,10.3,100,0.00,,,0.81,Rainwise IP-100,2013-05-20 15:40:00,
2013-05-20 11:45:00,49.6,50.0,30.05,SSE,157,2.3,8.2,100,0.00,,,0.81,Rainwise IP-100,2013-05-20 15:45:00,
2013-05-20 11:50:00,49.8,50.0,30.05,SSE,157,3.5,10.3,100,0.00,,,0.81,Rainwise IP-100,2013-05-20 15:50:00,
2013-05-20 11:55:00,49.8,50.0,30.05,ESE,112,3.5,10.5,100,0.00,,,0.81,Rainwise IP-100,2013-05-20 15:55:00,
2013-05-20 12:00:00,49.9,50.0,30.04,SE,135,2.1,9.1,100,0.00,,,0.81,Rainwise IP-100,2013-05-20 16:00:00,
2013-05-20 12:05:00,50.0,50.0,30.03,SSE,157,4.0,9.1,100,0.00,,,0.81,Rainwise IP-100,2013-05-20 16:05:00,
2013-05-20 12:10:00,50.1,50.0,30.04,SSE,157,5.6,11.4,100,0.00,,,0.81,Rainwise IP-100,2013-05-20 16:10:00,
2013-05-20 12:15:00,50.1,50.0,30.03,SSE,157,7.0,10.3,100,0.00,,,0.81,Rainwise IP-100,2013-05-20 16:15:00,
2013-05-20 12:20:00,50.1,50.0,30.03,South,180,3.7,11.4,100,0.00,,,0.81,Rainwise IP-100,2013-05-20 16:20:00,
2013-05-20 12:25:00,50.2,50.0,30.03,SE,135,3.5,9.3,100,0.00,,,0.81,Rainwise IP-100,2013-05-20 16:25:00,
2013-05-20 12:30:00,50.6,50.5,30.03,South,180,4.4,8.6,100,0.00,,,0.81,Rainwise IP-100,2013-05-20 16:30:00,
2013-05-20 12:35:00,50.9,51.0,30.02,SSE,157,4.0,8.9,100,0.00,,,0.81,Rainwise IP-100,2013-05-20 16:35:00,
2013-05-20 12:40:00,51.1,51.0,30.02,SE,135,3.5,6.8,100,0.00,,,0.81,Rainwise IP-100,2013-05-20 16:40:00,
2013-05-20 12:45:00,51.4,51.0,30.02,SSW,202,4.2,7.7,100,0.00,,,0.81,Rainwise IP-100,2013-05-20 16:45:00,
2013-05-20 12:50:00,51.5,52.0,30.02,SE,135,2.6,7.0,100,0.00,,,0.81,Rainwise IP-100,2013-05-20 16:50:00,
2013-05-20 12:55:00,51.7,52.0,30.01,SE,135,2.3,5.8,100,0.00,,,0.81,Rainwise IP-100,2013-05-20 16:55:00,
2013-05-20 13:00:00,51.9,52.0,30.01,South,180,2.1,5.6,100,0.00,,,0.81,Rainwise IP-100,2013-05-20 17:00:00,
2013-05-20 13:05:00,52.1,52.0,30.01,SSW,202,1.9,5.1,100,0.00,,,0.81,Rainwise IP-100,2013-05-20 17:05:00,
2013-05-20 13:10:00,52.2,52.0,30.00,South,180,0.0,5.1,100,0.00,,,0.81,Rainwise IP-100,2013-05-20 17:10:00,
2013-05-20 13:15:00,52.2,52.0,30.00,South,180,3.3,6.1,100,0.00,,,0.81,Rainwise IP-100,2013-05-20 17:15:00,
2013-05-20 13:20:00,52.0,52.0,30.01,SSE,157,2.6,4.2,100,0.00,,,0.81,Rainwise IP-100,2013-05-20 17:20:00,
2013-05-20 13:25:00,51.9,52.0,30.01,ESE,112,2.6,4.9,100,0.00,,,0.81,Rainwise IP-100,2013-05-20 17:25:00,
2013-05-20 13:30:00,52.0,52.0,30.01,ESE,112,2.1,3.0,100,0.00,,,0.81,Rainwise IP-100,2013-05-20 17:30:00,
2013-05-20 13:35:00,52.0,52.0,30.01,ESE,112,1.6,3.5,100,0.00,,,0.81,Rainwise IP-100,2013-05-20 17:35:00,
2013-05-20 13:40:00,52.0,52.0,30.01,ESE,112,1.2,2.3,100,0.00,,,0.81,Rainwise IP-100,2013-05-20 17:40:00,
2013-05-20 13:45:00,52.5,53.0,30.01,SSW,202,2.1,2.8,100,0.00,,,0.81,Rainwise IP-100,2013-05-20 17:45:00,
2013-05-20 13:50:00,53.1,53.0,30.01,SSE,157,0.0,2.3,100,0.00,,,0.81,Rainwise IP-100,2013-05-20 17:50:00,
2013-05-20 13:55:00,53.8,54.0,30.01,SSE,157,0.0,1.4,100,0.00,,,0.81,Rainwise IP-100,2013-05-20 17:55:00,
2013-05-20 14:00:00,54.3,54.5,30.00,SSE,157,0.0,1.6,100,0.00,,,0.81,Rainwise IP-100,2013-05-20 18:00:00,
2013-05-20 14:05:00,54.7,54.5,30.00,SE,135,1.9,1.9,100,0.00,,,0.81,Rainwise IP-100,2013-05-20 18:05:00,
2013-05-20 14:10:00,54.6,54.5,30.00,SE,135,1.2,2.3,100,0.00,,,0.81,Rainwise IP-100,2013-05-20 18:10:00,
2013-05-20 14:15:00,54.6,54.5,30.00,West,270,3.7,3.7,100,0.00,,,0.81,Rainwise IP-100,2013-05-20 18:15:00,
2013-05-20 14:20:00,54.4,54.5,30.00,WNW,292,0.0,3.7,100,0.00,,,0.81,Rainwise IP-100,2013-05-20 18:20:00,
2013-05-20 14:25:00,54.3,54.5,30.00,WSW,247,0.0,3.0,100,0.00,,,0.81,Rainwise IP-100,2013-05-20 18:25:00,
2013-05-20 14:30:00,54.9,55.0,30.00,NNE,22,0.0,2.6,100,0.00,,,0.81,Rainwise IP-100,2013-05-20 18:30:00,
2013-05-20 14:35:00,55.4,55.0,30.00,NNW,337,3.5,3.7,100,0.00,,,0.81,Rainwise IP-100,2013-05-20 18:35:00,
2013-05-20 14:40:00,55.3,55.0,30.00,NNW,337,3.3,3.7,100,0.00,,,0.81,Rainwise IP-100,2013-05-20 18:40:00,
2013-05-20 14:45:00,55.2,55.0,30.00,ESE,112,2.3,4.0,100,0.00,,,0.81,Rainwise IP-100,2013-05-20 18:45:00,
2013-05-20 14:50:00,55.4,55.0,30.00,North,360,2.6,3.7,100,0.00,,,0.81,Rainwise IP-100,2013-05-20 18:50:00,
2013-05-20 14:55:00,55.6,56.0,30.00,NW,315,0.0,4.0,100,0.00,,,0.81,Rainwise IP-100,2013-05-20 18:55:00,
2013-05-20 15:00:00,55.8,56.0,30.00,WNW,292,0.0,4.4,100,0.00,,,0.81,Rainwise IP-100,2013-05-20 19:00:00,
2013-05-20 15:05:00,55.8,56.0,30.00,NNW,337,1.6,3.5,99,0.00,,,0.81,Rainwise IP-100,2013-05-20 19:05:00,
2013-05-20 15:10:00,55.6,56.0,30.00,ESE,112,0.0,4.0,99,0.00,,,0.81,Rainwise IP-100,2013-05-20 19:10:00,
2013-05-20 15:15:00,56.0,56.0,30.00,ENE,67,2.6,2.6,100,0.00,,,0.81,Rainwise IP-100,2013-05-20 19:15:00,
2013-05-20 15:20:00,56.2,56.0,30.00,ESE,112,1.2,3.7,100,0.00,,,0.81,Rainwise IP-100,2013-05-20 19:20:00,
2013-05-20 15:25:00,55.9,56.0,29.99,ENE,67,0.0,4.4,100,0.00,,,0.81,Rainwise IP-100,2013-05-20 19:25:00,
2013-05-20 15:30:00,55.9,56.0,30.00,NNE,22,0.0,3.0,100,0.00,,,0.81,Rainwise IP-100,2013-05-20 19:30:00,
2013-05-20 15:35:00,55.8,56.0,30.00,East,90,0.0,2.3,99,0.00,,,0.81,Rainwise IP-100,2013-05-20 19:35:00,
2013-05-20 15:40:00,55.8,56.0,30.00,ENE,67,2.6,2.6,99,0.00,,,0.81,Rainwise IP-100,2013-05-20 19:40:00,
2013-05-20 15:45:00,55.8,56.0,30.00,ENE,67,0.0,3.0,99,0.00,,,0.81,Rainwise IP-100,2013-05-20 19:45:00,
2013-05-20 15:50:00,55.7,56.0,30.00,East,90,0.0,5.4,99,0.00,,,0.81,Rainwise IP-100,2013-05-20 19:50:00,
2013-05-20 15:55:00,55.7,56.0,30.00,ESE,112,1.6,3.7,99,0.00,,,0.81,Rainwise IP-100,2013-05-20 19:55:00,
2013-05-20 16:00:00,55.8,56.0,30.00,ESE,112,1.4,2.8,99,0.00,,,0.81,Rainwise IP-100,2013-05-20 20:00:00,
2013-05-20 16:05:00,56.0,56.0,30.00,East,90,0.0,3.7,99,0.00,,,0.81,Rainwise IP-100,2013-05-20 20:05:00,
2013-05-20 16:10:00,55.9,56.0,29.99,SE,135,0.0,3.3,99,0.00,,,0.81,Rainwise IP-100,2013-05-20 20:10:00,
2013-05-20 16:15:00,55.8,56.0,30.00,ESE,112,1.9,3.0,99,0.00,,,0.81,Rainwise IP-100,2013-05-20 20:15:00,
2013-05-20 16:20:00,56.0,55.0,30.00,ENE,67,1.2,2.6,98,0.00,,,0.81,Rainwise IP-100,2013-05-20 20:20:00,
2013-05-20 16:25:00,56.1,55.0,30.00,SE,135,2.1,2.3,98,0.00,,,0.81,Rainwise IP-100,2013-05-20 20:25:00,
2013-05-20 16:30:00,56.1,55.0,30.00,ESE,112,2.1,2.8,98,0.00,,,0.81,Rainwise IP-100,2013-05-20 20:30:00,
2013-05-20 16:35:00,56.1,55.0,30.00,ENE,67,1.6,3.3,98,0.00,,,0.81,Rainwise IP-100,2013-05-20 20:35:00,
2013-05-20 16:40:00,56.1,55.0,30.00,East,90,1.9,4.7,98,0.00,,,0.81,Rainwise IP-100,2013-05-20 20:40:00,
2013-05-20 16:45:00,56.2,55.0,30.00,ENE,67,0.0,4.7,98,0.00,,,0.81,Rainwise IP-100,2013-05-20 20:45:00,
2013-05-20 16:50:00,56.2,55.0,29.99,ESE,112,2.3,4.9,98,0.00,,,0.81,Rainwise IP-100,2013-05-20 20:50:00,
2013-05-20 16:55:00,56.2,55.0,29.99,SSE,157,0.0,4.0,98,0.00,,,0.81,Rainwise IP-100,2013-05-20 20:55:00,
2013-05-20 17:00:00,56.1,55.0,29.99,ESE,112,3.5,3.5,98,0.00,,,0.81,Rainwise IP-100,2013-05-20 21:00:00,
2013-05-20 17:05:00,56.0,55.0,30.00,ESE,112,1.6,5.8,97,0.00,,,0.81,Rainwise IP-100,2013-05-20 21:05:00,
2013-05-20 17:10:00,55.7,55.0,30.00,ESE,112,3.0,6.5,97,0.00,,,0.81,Rainwise IP-100,2013-05-20 21:10:00,
2013-05-20 17:15:00,55.5,55.0,30.00,ESE,112,4.9,4.9,98,0.00,,,0.81,Rainwise IP-100,2013-05-20 21:15:00,
2013-05-20 17:20:00,55.5,55.0,30.00,ESE,112,2.3,5.6,98,0.00,,,0.81,Rainwise IP-100,2013-05-20 21:20:00,
2013-05-20 17:25:00,55.8,55.0,30.00,East,90,3.0,4.0,97,0.00,,,0.81,Rainwise IP-100,2013-05-20 21:25:00,
2013-05-20 17:30:00,56.1,55.0,30.00,NE,45,0.0,5.8,97,0.00,,,0.81,Rainwise IP-100,2013-05-20 21:30:00,
2013-05-20 17:35:00,56.2,55.0,30.00,ENE,67,0.0,2.8,97,0.00,,,0.81,Rainwise IP-100,2013-05-20 21:35:00,
2013-05-20 17:40:00,56.5,55.0,30.00,NW,315,0.0,4.0,96,0.00,,,0.81,Rainwise IP-100,2013-05-20 21:40:00,
2013-05-20 17:45:00,56.6,55.0,30.01,SSE,157,1.4,4.0,96,0.00,,,0.81,Rainwise IP-100,2013-05-20 21:45:00,
2013-05-20 17:50:00,56.4,55.0,30.01,ESE,112,0.0,3.7,96,0.00,,,0.81,Rainwise IP-100,2013-05-20 21:50:00,
2013-05-20 17:55:00,56.3,55.0,30.01,East,90,1.4,2.8,96,0.00,,,0.81,Rainwise IP-100,2013-05-20 21:55:00,
2013-05-20 18:00:00,56.4,55.0,30.01,ESE,112,0.0,2.6,96,0.00,,,0.81,Rainwise IP-100,2013-05-20 22:00:00,
2013-05-20 18:05:00,56.7,55.0,30.01,ENE,67,0.0,1.2,96,0.00,,,0.81,Rainwise IP-100,2013-05-20 22:05:00,
2013-05-20 18:10:00,57.0,56.0,30.00,ESE,112,0.0,1.9,96,0.00,,,0.81,Rainwise IP-100,2013-05-20 22:10:00,
2013-05-20 18:15:00,57.1,56.0,30.01,ESE,112,0.0,2.8,95,0.00,,,0.81,Rainwise IP-100,2013-05-20 22:15:00,
2013-05-20 18:20:00,57.2,56.0,30.01,ESE,112,1.6,3.0,95,0.00,,,0.81,Rainwise IP-100,2013-05-20 22:20:00,
2013-05-20 18:25:00,57.1,56.0,30.01,SE,135,3.3,3.3,95,0.00,,,0.81,Rainwise IP-100,2013-05-20 22:25:00,
2013-05-20 18:30:00,57.0,56.0,30.01,SE,135,0.0,4.0,95,0.00,,,0.81,Rainwise IP-100,2013-05-20 22:30:00,
2013-05-20 18:35:00,57.1,56.0,30.02,ENE,67,0.0,3.0,95,0.00,,,0.81,Rainwise IP-100,2013-05-20 22:35:00,
2013-05-20 18:40:00,57.2,56.0,30.02,ENE,67,0.0,2.8,95,0.00,,,0.81,Rainwise IP-100,2013-05-20 22:40:00,
2013-05-20 18:45:00,57.4,56.0,30.02,East,90,0.0,4.4,94,0.00,,,0.81,Rainwise IP-100,2013-05-20 22:45:00,
2013-05-20 18:50:00,57.3,56.0,30.02,ENE,67,0.0,3.3,94,0.00,,,0.81,Rainwise IP-100,2013-05-20 22:50:00,
2013-05-20 18:55:00,57.0,55.0,30.02,NNE,22,4.0,4.0,94,0.00,,,0.81,Rainwise IP-100,2013-05-20 22:55:00,
2013-05-20 19:00:00,56.6,55.0,30.02,North,360,0.0,5.1,95,0.00,,,0.81,Rainwise IP-100,2013-05-20 23:00:00,
2013-05-20 19:05:00,56.2,54.5,30.02,SSE,157,0.0,2.3,95,0.00,,,0.81,Rainwise IP-100,2013-05-20 23:05:00,
2013-05-20 19:10:00,55.9,54.5,30.03,East,90,0.0,4.7,96,0.00,,,0.81,Rainwise IP-100,2013-05-20 23:10:00,
2013-05-20 19:15:00,55.6,54.5,30.03,ESE,112,0.0,2.6,96,0.00,,,0.81,Rainwise IP-100,2013-05-20 23:15:00,
2013-05-20 19:20:00,55.2,54.5,30.03,ENE,67,0.0,1.9,97,0.00,,,0.81,Rainwise IP-100,2013-05-20 23:20:00,
2013-05-20 19:25:00,55.0,54.5,30.03,ENE,67,0.0,1.2,97,0.00,,,0.81,Rainwise IP-100,2013-05-20 23:25:00,
2013-05-20 19:30:00,54.7,54.0,30.03,SE,135,1.2,1.4,97,0.00,,,0.81,Rainwise IP-100,2013-05-20 23:30:00,
2013-05-20 19:35:00,54.5,54.0,30.03,ESE,112,2.8,4.4,98,0.00,,,0.81,Rainwise IP-100,2013-05-20 23:35:00,
2013-05-20 19:40:00,54.5,54.5,30.03,ENE,67,1.4,3.0,99,0.00,,,0.81,Rainwise IP-100,2013-05-20 23:40:00,
2013-05-20 19:45:00,54.5,54.5,30.03,ESE,112,3.3,3.5,99,0.00,,,0.81,Rainwise IP-100,2013-05-20 23:45:00,
2013-05-20 19:50:00,54.3,54.5,30.03,East,90,1.9,3.7,99,0.00,,,0.81,Rainwise IP-100,2013-05-20 23:50:00,
2013-05-20 19:55:00,54.1,54.0,30.03,NNE,22,1.6,3.3,100,0.00,,,0.81,Rainwise IP-100,2013-05-20 23:55:00,
2013-05-20 20:00:00,53.9,54.0,30.03,ESE,112,0.0,2.8,100,0.00,,,0.81,Rainwise IP-100,2013-05-21 00:00:00,
2013-05-20 20:05:00,53.9,54.0,30.03,East,90,1.6,2.1,100,0.00,,,0.81,Rainwise IP-100,2013-05-21 00:05:00,
2013-05-20 20:10:00,53.8,54.0,30.03,ENE,67,2.3,3.0,100,0.00,,,0.81,Rainwise IP-100,2013-05-21 00:10:00,
2013-05-20 20:15:00,53.6,53.5,30.03,ESE,112,1.6,2.6,100,0.00,,,0.81,Rainwise IP-100,2013-05-21 00:15:00,
2013-05-20 20:20:00,53.6,53.5,30.03,ESE,112,2.3,2.8,100,0.00,,,0.81,Rainwise IP-100,2013-05-21 00:20:00,
2013-05-20 20:25:00,53.4,53.5,30.03,ESE,112,0.0,5.1,100,0.00,,,0.81,Rainwise IP-100,2013-05-21 00:25:00,
2013-05-20 20:30:00,53.0,53.0,30.03,ESE,112,2.6,4.9,100,0.00,,,0.81,Rainwise IP-100,2013-05-21 00:30:00,
2013-05-20 20:35:00,52.8,53.0,30.03,SE,135,1.2,5.6,100,0.00,,,0.81,Rainwise IP-100,2013-05-21 00:35:00,
2013-05-20 20:40:00,52.6,53.0,30.03,ESE,112,0.0,5.1,100,0.00,,,0.81,Rainwise IP-100,2013-05-21 00:40:00,
2013-05-20 20:45:00,52.6,53.0,30.03,ESE,112,0.0,3.7,100,0.00,,,0.81,Rainwise IP-100,2013-05-21 00:45:00,
2013-05-20 20:50:00,52.5,53.0,30.04,East,90,0.0,4.0,100,0.00,,,0.81,Rainwise IP-100,2013-05-21 00:50:00,
2013-05-20 20:55:00,52.5,53.0,30.04,East,90,1.6,3.3,100,0.00,,,0.81,Rainwise IP-100,2013-05-21 00:55:00,
2013-05-20 21:00:00,52.4,52.0,30.04,SE,135,2.1,2.1,100,0.00,,,0.81,Rainwise IP-100,2013-05-21 01:00:00,
2013-05-20 21:05:00,52.3,52.0,30.05,ESE,112,2.1,5.6,100,0.00,,,0.81,Rainwise IP-100,2013-05-21 01:05:00,
2013-05-20 21:10:00,52.1,52.0,30.05,ESE,112,4.2,4.4,100,0.00,,,0.81,Rainwise IP-100,2013-05-21 01:10:00,
2013-05-20 21:15:00,51.8,52.0,30.05,ESE,112,1.4,4.7,100,0.00,,,0.81,Rainwise IP-100,2013-05-21 01:15:00,
2013-05-20 21:20:00,51.7,52.0,30.06,ESE,112,0.0,2.8,100,0.00,,,0.81,Rainwise IP-100,2013-05-21 01:20:00,
2013-05-20 21:25:00,51.7,52.0,30.05,ESE,112,0.0,2.6,100,0.00,,,0.81,Rainwise IP-100,2013-05-21 01:25:00,
2013-05-20 21:30:00,51.7,52.0,30.05,ESE,112,1.6,5.4,100,0.00,,,0.81,Rainwise IP-100,2013-05-21 01:30:00,
2013-05-20 21:35:00,51.5,52.0,30.05,ESE,112,1.9,5.6,100,0.00,,,0.81,Rainwise IP-100,2013-05-21 01:35:00,
2013-05-20 21:40:00,51.4,51.0,30.05,ESE,112,1.4,4.9,100,0.00,,,0.81,Rainwise IP-100,2013-05-21 01:40:00,
2013-05-20 21:45:00,51.4,51.0,30.04,ESE,112,2.3,3.7,100,0.00,,,0.81,Rainwise IP-100,2013-05-21 01:45:00,
2013-05-20 21:50:00,51.3,51.0,30.05,ESE,112,1.9,4.9,100,0.00,,,0.81,Rainwise IP-100,2013-05-21 01:50:00,
2013-05-20 21:55:00,51.2,51.0,30.05,ESE,112,1.6,4.4,100,0.00,,,0.81,Rainwise IP-100,2013-05-21 01:55:00,
2013-05-20 22:00:00,51.2,51.0,30.04,East,90,2.6,4.2,100,0.00,,,0.81,Rainwise IP-100,2013-05-21 02:00:00,
2013-05-20 22:05:00,51.1,51.0,30.05,East,90,5.1,5.1,100,0.00,,,0.81,Rainwise IP-100,2013-05-21 02:05:00,
2013-05-20 22:10:00,50.9,51.0,30.06,East,90,2.8,7.9,100,0.00,,,0.81,Rainwise IP-100,2013-05-21 02:10:00,
2013-05-20 22:15:00,50.7,50.5,30.06,ESE,112,0.0,4.0,100,0.00,,,0.81,Rainwise IP-100,2013-05-21 02:15:00,
2013-05-20 22:20:00,50.7,50.5,30.06,ESE,112,4.0,4.0,100,0.00,,,0.81,Rainwise IP-100,2013-05-21 02:20:00,
2013-05-20 22:25:00,50.6,50.5,30.05,ESE,112,1.4,4.4,100,0.00,,,0.81,Rainwise IP-100,2013-05-21 02:25:00,
2013-05-20 22:30:00,50.5,50.5,30.06,ESE,112,1.6,2.8,100,0.00,,,0.81,Rainwise IP-100,2013-05-21 02:30:00,
2013-05-20 22:35:00,50.5,50.5,30.05,ENE,67,2.1,3.7,100,0.00,,,0.81,Rainwise IP-100,2013-05-21 02:35:00,
2013-05-20 22:40:00,50.5,50.5,30.06,East,90,1.9,3.7,100,0.00,,,0.81,Rainwise IP-100,2013-05-21 02:40:00,
2013-05-20 22:45:00,50.5,50.5,30.06,SE,135,1.9,3.5,100,0.00,,,0.81,Rainwise IP-100,2013-05-21 02:45:00,
2013-05-20 22:50:00,50.4,50.5,30.05,East,90,1.2,4.9,100,0.00,,,0.81,Rainwise IP-100,2013-05-21 02:50:00,
2013-05-20 22:55:00,50.2,50.0,30.05,ESE,112,1.2,5.1,100,0.00,,,0.81,Rainwise IP-100,2013-05-21 02:55:00,
2013-05-20 23:00:00,50.1,50.0,30.05,ESE,112,2.8,4.4,100,0.00,,,0.81,Rainwise IP-100,2013-05-21 03:00:00,
2013-05-20 23:05:00,50.1,50.0,30.06,ESE,112,1.2,5.1,100,0.00,,,0.81,Rainwise IP-100,2013-05-21 03:05:00,
2013-05-20 23:10:00,50.0,50.0,30.06,ESE,112,2.6,5.1,100,0.00,,,0.81,Rainwise IP-100,2013-05-21 03:10:00,
2013-05-20 23:15:00,50.0,50.0,30.06,ESE,112,3.3,4.4,100,0.00,,,0.81,Rainwise IP-100,2013-05-21 03:15:00,
2013-05-20 23:20:00,49.9,50.0,30.06,ESE,112,2.8,4.4,100,0.00,,,0.81,Rainwise IP-100,2013-05-21 03:20:00,
2013-05-20 23:25:00,49.8,50.0,30.06,ENE,67,3.5,4.7,100,0.00,,,0.81,Rainwise IP-100,2013-05-21 03:25:00,
2013-05-20 23:30:00,49.7,50.0,30.06,NE,45,2.1,6.1,100,0.00,,,0.81,Rainwise IP-100,2013-05-21 03:30:00,
2013-05-20 23:35:00,49.6,50.0,30.06,ESE,112,0.0,5.4,100,0.00,,,0.81,Rainwise IP-100,2013-05-21 03:35:00,
2013-05-20 23:40:00,49.5,50.0,30.06,ESE,112,1.4,6.5,100,0.00,,,0.81,Rainwise IP-100,2013-05-21 03:40:00,
2013-05-20 23:45:00,49.5,50.0,30.06,ENE,67,2.8,4.4,100,0.00,,,0.81,Rainwise IP-100,2013-05-21 03:45:00,
2013-05-20 23:50:00,49.4,49.0,30.07,ESE,112,2.1,5.6,100,0.00,,,0.81,Rainwise IP-100,2013-05-21 03:50:00,
2013-05-20 23:53:00,49.3,49.0,30.07,SSE,157,0.0,5.6,100,0.00,,,0.81,Rainwise IP-100,2013-05-21 03:53:00,
2013-05-20 23:58:00,49.2,49.0,30.06,ESE,112,3.7,3.7,100,0.00,,,0.81,Rainwise IP-100,2013-05-21 03:58:00,